Regional Weather Roundup
Issued by NWS

Home | Current Version | Previous Version | Text Only | Print | Product List | Glossary On
Versions: 1 2 3 4 5 6 7 8 9 10 11 12 13 14 15 16 17 18 19 20 21 22 23 24 25 26 27 28 29 30 31 32 33 34 35 36 37 38 39 40 41 42 43 44 45 46 47 48 49 50
000
ASUS43 KDTX 222101
RWRMI
MICHIGAN HOURLY REGIONAL WEATHER ROUNDUP
NATIONAL WEATHER SERVICE DETROIT/PONTIAC MI
500 PM EDT WED OCT 22 2014

NOTE: "FAIR" INDICATES FEW OR NO CLOUDS BELOW 12,000 FEET WITH NO
SIGNIFICANT WEATHER AND/OR OBSTRUCTION TO VISIBILITY.

MIZ047>049-052>055-059>063-066>070-074>076-081>083-222200-
SOUTHEAST LOWER MICHIGAN

CITY           SKY/WX    TMP DP  RH WIND       PRES   REMARKS
ADRIAN         PTSUNNY   52  40  63 N6        30.30F
ALMA           CLOUDY    48  39  71 NE5       30.34S
ANN ARBOR      MOSUNNY   55  39  54 NW6       30.28F
BAD AXE        CLOUDY    46  40  79 N9        30.33S
CARO           CLOUDY    48  41  75 N9        30.32S
DETROIT CITY   SUNNY     56  39  53 N7        30.29S
DETROIT        MOSUNNY   55  40  56 N8        30.29S
FLINT          CLOUDY    51  39  63 NW7       30.33S
GROSSE ILE     MOSUNNY   55  39  54 N5        30.27S
HILLSDALE      CLOUDY    48  41  77 NW6       30.30S
HOWELL         PTSUNNY   48  39  71 N5        30.31S

CITY           SKY/WX    TMP DP  RH WIND       PRES   REMARKS
JACKSON        CLOUDY    48  39  71 N6        30.30F
LAMBERTVILLE   PTSUNNY   55  41  58 NW6       30.28F
LANSING        CLOUDY    47  38  71 NE5       30.33F
LAPEER         FAIR      50  39  66 N6        30.31S
MASON          CLOUDY    47  40  74 N5        30.31F
MONROE         CLOUDY    55  43  62 N8        30.27S
MT. CLEMENS    PTSUNNY   53  41  62 N12       30.26S
PONTIAC        MOSUNNY   52  38  58 W8        30.29S
PORT HOPE        N/A     47  38  71 CALM      30.32S
PORT HURON     SUNNY     50  41  71 N9        30.29F
TRI CITIES     CLOUDY    49  38  65 N3        30.34F
TROY           MOSUNNY   55  39  53 N7        30.30S
SAGINAW HB     CLOUDY    48  41  76 N6        30.33S
$$
MIZ043>046-050>051-056>058-064>065-071>073-077>080-222200-
SOUTHWEST LOWER MICHIGAN

CITY           SKY/WX    TMP DP  RH WIND       PRES   REMARKS
BATTLE CREEK   CLOUDY    49  39  68 NE5       30.32S
BENTON HARBOR  SUNNY     50  37  61 VRB5      30.31F
BIG RAPIDS     SUNNY     49  36  60 CALM      30.32S
COLDWATER      CLOUDY    48  40  75 NW3       30.31S
FREMONT        FAIR      51  28  41 CALM      30.31S
HOLLAND        SUNNY     56  34  43 CALM      30.32F
GRAND RAPIDS   MOSUNNY   50  39  66 E5        30.32F
IONIA          CLOUDY    48  38  70 N7        30.32S
KALAMAZOO      MOSUNNY   49  38  65 CALM      30.32F
LUDINGTON      SUNNY     49  37  61 W5        30.33F
MARSHALL       CLOUDY    47  38  72 CALM      30.31S
MOUNT PLEASANT MOSUNNY   47  36  64 CALM      30.32F
MUSKEGON       MOSUNNY   51  35  54 W8        30.32F
SOUTH HAVEN    SUNNY     52  40  63 NW5       30.31S
$$
MIZ016>042-222200-
NORTHERN LOWER MICHIGAN

CITY           SKY/WX    TMP DP  RH WIND       PRES   REMARKS
ALPENA         SUNNY     49  35  58 NE6       30.33F
BEAVER ISLAND  SUNNY     47  37  67 CALM      30.33F
BELLAIRE       SUNNY     49  33  53 S3        30.33F
CADILLAC       SUNNY     46  31  56 CALM      30.30F
CHARLEVOIX     SUNNY     46  38  72 NW6       30.37F
FRANKFORT      SUNNY     47  35  63 N3        30.33F
GAYLORD        SUNNY     50  29  44 NW5       30.31F
GRAYLING       SUNNY     49  34  56 CALM      30.33S
HARBOR SPRINGS SUNNY     50  35  57 SW5       30.33S
HOUGHTON LAKE  SUNNY     48  34  58 W3        30.32F
MANISTEE       SUNNY     46  32  57 W8        30.33F
OSCODA         SUNNY     47  37  67 E8        30.33S
PELLSTON       SUNNY     51  31  46 CALM      30.33F
TRAVERSE CITY  SUNNY     48  32  53 NE3       30.32F
$$
MIZ007>008-015-222200-
EASTERN UPPER MICHIGAN

CITY           SKY/WX    TMP DP  RH WIND       PRES   REMARKS
KINROSS        SUNNY     50  30  46 CALM      30.33F
MACKINAC ISLAN SUNNY     46  33  61 E3        30.33F
NEWBERRY       SUNNY     48  31  52 SW6       30.31F
S. S. MARIE    SUNNY     50  28  42 CALM      30.32F
MUNISING         N/A     53  32  44 S13       30.28F
$$
MIZ004>006-011>014-085-222200-
CENTRAL UPPER MICHIGAN

CITY           SKY/WX    TMP DP  RH WIND       PRES   REMARKS
MANISTIQUE     SUNNY     45  36  70 S6        30.32F
ESCANABA       SUNNY     46  36  66 SE10      30.31F
MENOMINEE      SUNNY     48  36  61 S8        30.30F
SAWYER-GWINN   SUNNY     50  36  57 S14       30.26F
$$
MIZ001>003-009>011-084-222200-
WESTERN UPPER MICHIGAN

CITY           SKY/WX    TMP DP  RH WIND       PRES   REMARKS
IRON MOUNTAIN  SUNNY     51  32  48 S9        30.25F
HOUGHTON       SUNNY     50  34  54 SE14      30.19F
COPPER HARBOR    N/A     49  37  63 S8G21     30.21F
IRONWOOD       MOSUNNY   57  28  33 S8        30.13F
$$

ABBREVIATIONS USED IN REMARKS
   TC - TEMPERATURE IN CELSIUS
  WCI - WIND CHILL INDEX
   HX - HEAT INDEX
  VSB - VISIBILITY




USA.gov is the U.S. government's official web portal to all federal, state and local government web resources and services.